Stations météo

Publicité
Achnagart, Grande-Bretagne (99191): Température de l'air & dewpoint: 03.07.2020 15:00:00 - 09.07.2020 15:00:00 (BST)Achnagart, Grande-Bretagne (99191): Quantités de précipitations: 03.07.2020 15:00:00 - 09.07.2020 15:00:00 (BST)
Date & Time tt [°C] td [°C] rr [mm]
09.07.2020 15:00:00 16,7 7,0 0,0
09.07.2020 14:00:00 17,2 7,8 0,0
09.07.2020 13:00:00 15,5 8,1 0,0
09.07.2020 12:00:00 16,3 6,8 0,0
09.07.2020 11:00:00 15,7 8,6 0,0
09.07.2020 10:00:00 13,5 8,2 0,0
09.07.2020 09:00:00 10,5 10,3 0,0
09.07.2020 08:00:00 8,4 8,4 0,0
09.07.2020 07:00:00 5,6 5,6 0,0
09.07.2020 06:00:00 4,3 4,3 0,0
09.07.2020 05:00:00 3,1 3,0 0,0
09.07.2020 04:00:00 3,5 3,4 0,0
09.07.2020 03:00:00 4,0 3,8 0,0
09.07.2020 02:00:00 4,6 4,4 0,0
09.07.2020 01:00:00 5,5 5,2 0,0
09.07.2020 00:00:00 6,0 5,2 0,0
08.07.2020 23:00:00 7,5 6,1 0,0
08.07.2020 22:00:00 9,9 8,3 0,0
08.07.2020 21:00:00 13,0 7,5 0,0
08.07.2020 20:00:00 14,1 7,8 0,0
08.07.2020 19:00:00 14,9 7,9 0,0
08.07.2020 18:00:00 15,8 9,1 0,0
08.07.2020 17:00:00 16,1 8,5 0,0
08.07.2020 16:00:00 16,0 9,0 0,0
08.07.2020 15:00:00 16,2 9,0 0,0
08.07.2020 14:00:00 15,1 9,0 0,0
08.07.2020 13:00:00 15,7 8,6 0,0
08.07.2020 12:00:00 15,0 9,5 0,0
08.07.2020 11:00:00 14,4 9,1 0,0
08.07.2020 10:00:00 12,6 9,8 0,0
08.07.2020 09:00:00 7,5 7,5 0,0
08.07.2020 08:00:00 5,1 5,1 0,0
08.07.2020 07:00:00 4,8 4,8 0,0
08.07.2020 06:00:00 4,8 4,8 0,0
08.07.2020 05:00:00 5,0 4,9 0,0
08.07.2020 04:00:00 4,9 4,7 0,0
08.07.2020 03:00:00 6,0 5,8 0,0
08.07.2020 02:00:00 7,0 6,6 0,0
08.07.2020 01:00:00 8,6 7,4 0,0
08.07.2020 00:00:00 10,2 8,5 0,0
07.07.2020 23:00:00 9,3 8,4 0,0
07.07.2020 22:00:00 11,9 9,5 0,0
07.07.2020 21:00:00 12,9 9,8 0,0
07.07.2020 20:00:00 13,5 8,8 0,0
07.07.2020 19:00:00 13,5 9,0 0,0
07.07.2020 18:00:00 13,5 8,9 0,0
07.07.2020 17:00:00 13,9 8,7 0,0
07.07.2020 16:00:00 14,7 9,7 0,0
07.07.2020 15:00:00 13,3 8,9 0,8
07.07.2020 14:00:00 14,0 9,5 0,0
07.07.2020 13:00:00 13,1 10,4 0,2
07.07.2020 12:00:00 11,0 9,0 0,0
07.07.2020 11:00:00 13,1 10,5 0,0
07.07.2020 10:00:00 12,1 9,1 0,0
07.07.2020 09:00:00 11,6 9,9 0,0
07.07.2020 08:00:00 10,8 9,6 0,0
07.07.2020 07:00:00 9,5 9,3 3,8
07.07.2020 06:00:00 10,0 8,2 0,0
07.07.2020 05:00:00 9,2 8,3 0,0
07.07.2020 04:00:00 9,3 8,0 0,0
07.07.2020 03:00:00 9,7 8,4 0,2
07.07.2020 02:00:00 9,9 8,6 0,0
07.07.2020 01:00:00 10,1 8,8 0,0
07.07.2020 00:00:00 10,4 8,7 0,8
06.07.2020 23:00:00 10,5 8,4 0,0
06.07.2020 22:00:00 10,8 8,4 2,2
06.07.2020 21:00:00 11,5 8,7 0,6
06.07.2020 20:00:00 11,6 8,1 0,0
06.07.2020 19:00:00 12,6 7,2 0,0
06.07.2020 18:00:00 13,1 6,9 0,0
06.07.2020 17:00:00 12,7 6,4 0,0
06.07.2020 16:00:00 14,7 7,0 0,0
06.07.2020 15:00:00 12,9 7,3 0,0
06.07.2020 14:00:00 12,2 7,9 0,0
06.07.2020 13:00:00 13,5 7,3 0,0
06.07.2020 12:00:00 12,7 6,1 0,0
06.07.2020 11:00:00 12,0 6,7 0,0
06.07.2020 10:00:00 11,3 6,9 0,0
06.07.2020 09:00:00 11,2 7,6 0,0
06.07.2020 08:00:00 10,3 8,3 0,0
06.07.2020 07:00:00 10,0 8,9 0,4
06.07.2020 06:00:00 9,9 8,6 0,0
06.07.2020 05:00:00 10,2 8,3 1,0
06.07.2020 04:00:00 10,3 8,5 0,4
06.07.2020 03:00:00 10,8 9,4 0,0
06.07.2020 02:00:00 10,8 9,1 0,0
06.07.2020 01:00:00 10,7 8,5 0,2
06.07.2020 00:00:00 11,2 8,3 0,0
05.07.2020 23:00:00 11,4 8,4 0,0
05.07.2020 22:00:00 10,9 8,2 0,6
05.07.2020 21:00:00 10,6 8,1 0,6
05.07.2020 20:00:00 11,0 8,6 0,8
05.07.2020 19:00:00 10,4 9,4 2,2
05.07.2020 18:00:00 9,7 8,4 4,4
05.07.2020 17:00:00 14,0 8,2 0,0
05.07.2020 16:00:00 11,9 9,3 0,4
05.07.2020 15:00:00 13,4 7,6 0,0
05.07.2020 14:00:00 13,6 8,3 0,2
05.07.2020 13:00:00 12,4 8,5 0,8
05.07.2020 12:00:00 12,9 8,0 1,0
05.07.2020 11:00:00 12,1 8,6 1,0
05.07.2020 10:00:00 10,6 8,0 1,6
05.07.2020 09:00:00 10,6 8,1 1,0
05.07.2020 08:00:00 11,2 7,9 0,0
05.07.2020 07:00:00 11,1 7,4 0,0
05.07.2020 06:00:00 10,5 8,3 0,0
05.07.2020 05:00:00 10,1 9,4 0,0
05.07.2020 04:00:00 9,9 9,3 0,4
05.07.2020 03:00:00 10,2 9,6 1,0
05.07.2020 02:00:00 9,9 9,8 1,4
05.07.2020 01:00:00 9,8 9,6 3,6
05.07.2020 00:00:00 9,9 9,7 3,0
04.07.2020 23:00:00 10,0 9,6 2,8
04.07.2020 22:00:00 10,4 9,5 2,4
04.07.2020 21:00:00 11,6 10,0 1,0
04.07.2020 20:00:00 12,9 8,7 0,0
04.07.2020 19:00:00 13,9 8,0 0,0
04.07.2020 18:00:00 15,9 7,9 0,0
04.07.2020 17:00:00 14,5 7,8 0,0
04.07.2020 16:00:00 13,5 7,8 0,0
04.07.2020 15:00:00 12,8 10,8 0,0
04.07.2020 14:00:00 12,9 11,8 0,4
04.07.2020 13:00:00 12,7 10,1 0,0
04.07.2020 12:00:00 13,0 10,5 0,2
04.07.2020 11:00:00 12,5 9,3 0,0
04.07.2020 10:00:00 11,9 9,3 2,0
04.07.2020 09:00:00 12,2 9,0 0,2
04.07.2020 08:00:00 12,7 9,4 0,0
04.07.2020 07:00:00 11,7 8,9 0,0
04.07.2020 06:00:00 11,5 8,5 0,0
04.07.2020 05:00:00 11,1 9,1 0,0
04.07.2020 04:00:00 10,5 8,5 0,0
04.07.2020 03:00:00 10,9 9,4 0,0
04.07.2020 02:00:00 10,9 9,2 0,0
04.07.2020 01:00:00 11,5 9,1 0,0
04.07.2020 00:00:00 11,3 9,6 0,0
03.07.2020 23:00:00 12,3 8,6 0,0
03.07.2020 22:00:00 12,4 8,7 0,0
03.07.2020 21:00:00 13,4 8,7 0,0
03.07.2020 20:00:00 13,7 9,0 0,0
03.07.2020 19:00:00 14,8 9,5 0,0
03.07.2020 18:00:00 13,8 11,0 0,0
03.07.2020 17:00:00 12,2 9,9 2,6
03.07.2020 16:00:00 12,2 11,1 2,8
03.07.2020 15:00:00 12,6 11,3 2,2

tt = Température de l'air
td = dewpoint
rr = Quantités de précipitations

stations d'obs. à proximité